Voltar ao catálogo

STARLINK-35391

AtivoComunicaçõesVLEO
NORAD 66616·PAYLOAD·🇺🇸 United States

Lançado Nov 22, 2025 de Cape Canaveral Space Force Station

Loading…

Próximas Passagens (próximas 24 horas)

TLE

AtualizadoSource: CelesTrak SupGP

Época: Sep 14, 2026, 20:45 UTC

1 66616C 25270AE  26257.86506944 -.00001877  00000+0 -68006-4 0  2570
2 66616  43.0034  68.0618 0001453 268.2609 138.2582 15.27571016    11

Acompanhe STARLINK-35391 em tempo real com AllMySat

Download on the App Store